Gallup, NM

2:50 AM MST on February 25, 2017 (GMT -0700)
Gallup Municipal

Weather History for KGUP - July, 2013

Change the Weather History Date:

Monday, July 22, 2013

  Actual Average Record
Temperature  
Mean Temperature 70 °F -  
Max Temperature 86 °F 85 °F 96 °F (2000)
Min Temperature 57 °F 53 °F 0 °F (2016)
Cooling Degree Days 6    
Growing Degree Days 20 (Base 50)    
Moisture  
Dew Point 55 °F    
Average Humidity 68    
Maximum Humidity 93    
Minimum Humidity 29    
Precipitation  
Precipitation 0.01 in - - ()
Sea Level Pressure  
Sea Level Pressure 29.79 in    
Wind  
Wind Speed 5 mph (SSW)    
Max Wind Speed 23 mph    
Max Gust Speed 29 mph    
Visibility 10 miles    
Events Rain , Thunderstorm    
Averages and records for this station are not official NWS values.
T = Trace of Precipitation, MM = Missing Value Source: NWS Daily Summary

Daily Weather History Graph

Daily Weather History Graph

Search for Another Location

Airport or City:

Trip Planner

Search our weather history database for the weather conditions in past years. The results will help you decide how hot, cold, wet, or windy it might be!

Date:

Astronomy

Jul. 22, 2013 Rise Set
Actual Time 6:16 AM MDT 8:26 PM MDT
Civil Twilight 5:47 AM MDT 8:55 PM MDT
Nautical Twilight 5:12 AM MDT 9:30 PM MDT
Astronomical Twilight 4:34 AM MDT 10:08 PM MDT
Moon 8:18 PM MDT (7/22) 6:14 AM MDT (7/22)
Length of Visible Light 15h 07m
Length of Day
14h 10m
Full, 100% of the Moon is Illuminated
Jul 22
Full
Jul 22
Full
Jul 29
Last Quarter
Aug 6
New
Aug 14
First Quarter

Hourly Weather History & Observations

Time (MDT) Temp. Heat Index Dew Point Humidity Pressure Visibility Wind Dir Wind Speed Gust Speed Precip Events Conditions
12:53 AM 61.0 °F - 57.9 °F 90% 29.69 in 10.0 mi ENE 4.6 mph - N/A   Mostly Cloudy
1:53 AM 61.0 °F - 57.0 °F 87% 29.69 in 10.0 mi NNW 3.5 mph - N/A   Clear
2:53 AM 60.1 °F - 57.9 °F 93% 29.68 in 10.0 mi Calm Calm - N/A   Clear
3:53 AM 60.1 °F - 57.0 °F 90% 29.72 in 10.0 mi Calm Calm - N/A   Clear
4:53 AM 59.0 °F - 57.0 °F 93% 29.79 in 10.0 mi Calm Calm - N/A   Clear
5:53 AM 57.9 °F - 55.9 °F 93% 29.81 in 10.0 mi South 3.5 mph - N/A   Clear
6:53 AM 59.0 °F - 55.9 °F 90% 29.80 in 10.0 mi Calm Calm - N/A   Clear
7:53 AM 62.1 °F - 57.0 °F 84% 29.82 in 10.0 mi SSE 3.5 mph - N/A   Clear
8:53 AM 64.9 °F - 57.9 °F 78% 29.85 in 10.0 mi Calm Calm - N/A   Clear
9:53 AM 69.1 °F - 57.9 °F 68% 29.83 in 10.0 mi Calm Calm - N/A   Scattered Clouds
10:53 AM 73.0 °F - 55.9 °F 55% 29.80 in 10.0 mi Variable 3.5 mph - N/A   Clear
11:53 AM 75.9 °F - 55.9 °F 50% 29.77 in 10.0 mi WSW 6.9 mph - N/A   Clear
12:53 PM 80.1 °F 79.9 °F 53.1 °F 39% 29.73 in 10.0 mi WNW 6.9 mph - N/A   Clear
1:53 PM 84.0 °F - 48.9 °F 29% 29.67 in 10.0 mi Variable 4.6 mph - N/A   Clear
2:53 PM 84.0 °F - 48.9 °F 29% 29.66 in 10.0 mi West 11.5 mph - N/A   Clear
3:53 PM 84.9 °F - 50.0 °F 30% 29.63 in 10.0 mi WSW 6.9 mph 16.1 mph N/A   Scattered Clouds
4:53 PM 77.0 °F - 52.0 °F 42% 29.71 in 10.0 mi SSE 23.0 mph 28.8 mph N/A   Partly Cloudy
4:57 PM 75.2 °F - 51.8 °F 44% 30.17 in 10.0 mi SSE 19.6 mph 28.8 mph N/A Thunderstorm Partly Cloudy
5:53 PM 70.0 °F - 54.0 °F 57% 29.77 in 10.0 mi South 15.0 mph 24.2 mph N/A Thunderstorm Partly Cloudy
6:53 PM 69.1 °F - 54.0 °F 58% 29.79 in 10.0 mi SSW 15.0 mph - 0.00 in Rain , Thunderstorm Light Rain
7:29 PM 64.4 °F - 59.0 °F 83% 30.18 in 10.0 mi SW 12.7 mph - 0.01 in Rain Light Rain
7:53 PM 64.9 °F - 59.0 °F 81% 29.78 in 10.0 mi SSE 5.8 mph - 0.01 in   Mostly Cloudy
8:53 PM 64.0 °F - 57.0 °F 78% 29.78 in 10.0 mi West 5.8 mph - N/A   Clear
9:53 PM 64.0 °F - 57.9 °F 80% 29.80 in 10.0 mi SSW 4.6 mph - N/A   Clear
10:53 PM 64.9 °F - 57.0 °F 75% 29.78 in 10.0 mi SSW 6.9 mph - N/A   Mostly Cloudy
11:53 PM 64.0 °F - 55.9 °F 75% 29.77 in 10.0 mi SSW 10.4 mph - N/A   Partly Cloudy